Time,TemperatureF,DewpointF,PressureIn,WindDirection,WindDirectionDegrees,WindSpeedMPH,WindSpeedGustMPH,Humidity,HourlyPrecipIn,Conditions,Clouds,dailyrainin,SoftwareType,DateUTC
2013-01-09 00:00:00,70.7,46.5,30.16,NE,55,0.0,0.0,42,0.00,,SKC,0.00,VWS V14.01,2013-01-09 05:00:00,
2013-01-09 00:02:00,70.7,46.5,30.16,NE,55,0.0,0.0,42,0.00,,SKC,0.00,VWS V14.01,2013-01-09 05:02:00,
2013-01-09 00:03:00,70.7,46.5,30.16,NE,55,0.0,0.0,42,0.00,,SKC,0.00,VWS V14.01,2013-01-09 05:03:00,
2013-01-09 00:08:00,70.7,46.5,30.16,NE,55,0.0,0.0,42,0.00,,SKC,0.00,VWS V14.01,2013-01-09 05:08:00,
2013-01-09 00:13:00,70.7,46.5,30.16,NE,55,0.0,0.0,42,0.00,,SKC,0.00,VWS V14.01,2013-01-09 05:13:00,
2013-01-09 00:18:00,70.9,46.7,30.16,NE,55,0.0,0.0,42,0.00,,SKC,0.00,VWS V14.01,2013-01-09 05:18:00,
2013-01-09 00:23:00,70.9,46.7,30.16,NE,55,0.0,0.0,42,0.00,,SKC,0.00,VWS V14.01,2013-01-09 05:23:00,
2013-01-09 00:28:00,70.9,47.3,30.16,NE,55,0.0,0.0,43,0.00,,SKC,0.00,VWS V14.01,2013-01-09 05:28:00,
2013-01-09 00:33:00,70.9,47.3,30.16,NE,55,0.0,0.0,43,0.00,,SKC,0.00,VWS V14.01,2013-01-09 05:33:00,
2013-01-09 00:38:00,70.9,47.3,30.16,NE,55,0.0,0.0,43,0.00,,SKC,0.00,VWS V14.01,2013-01-09 05:38:00,
2013-01-09 00:43:00,70.9,47.3,30.16,NE,55,0.0,0.0,43,0.00,,SKC,0.00,VWS V14.01,2013-01-09 05:43:00,
2013-01-09 00:48:00,70.9,47.3,30.16,NE,55,0.0,0.0,43,0.00,,SKC,0.00,VWS V14.01,2013-01-09 05:48:00,
2013-01-09 00:53:00,70.9,47.3,30.16,NE,55,0.0,0.0,43,0.00,,SKC,0.00,VWS V14.01,2013-01-09 05:53:00,
2013-01-09 00:58:00,70.9,47.3,30.16,NE,55,0.0,0.0,43,0.00,,SKC,0.00,VWS V14.01,2013-01-09 05:58:00,
2013-01-09 01:03:00,70.9,47.3,30.16,NE,55,0.0,0.0,43,0.00,,SKC,0.00,VWS V14.01,2013-01-09 06:03:00,
2013-01-09 01:08:00,71.1,48.1,30.16,ENE,66,0.0,0.0,44,0.00,,SKC,0.00,VWS V14.01,2013-01-09 06:08:00,
2013-01-09 01:13:00,70.9,47.9,30.16,ENE,67,0.0,0.0,44,0.00,,SKC,0.00,VWS V14.01,2013-01-09 06:13:00,
2013-01-09 01:18:00,70.9,47.9,30.16,ENE,66,0.0,0.0,44,0.00,,SKC,0.00,VWS V14.01,2013-01-09 06:18:00,
2013-01-09 01:23:00,70.9,47.9,30.16,ENE,66,0.0,0.0,44,0.00,,SKC,0.00,VWS V14.01,2013-01-09 06:23:00,
2013-01-09 01:28:00,70.9,47.9,30.16,ENE,66,0.0,0.0,44,0.00,,SKC,0.00,VWS V14.01,2013-01-09 06:28:00,
2013-01-09 01:33:00,70.9,47.9,30.16,ENE,67,0.0,0.0,44,0.00,,SKC,0.00,VWS V14.01,2013-01-09 06:33:00,
2013-01-09 01:38:00,70.9,47.9,30.16,ENE,66,0.0,0.0,44,0.00,,SKC,0.00,VWS V14.01,2013-01-09 06:38:00,
2013-01-09 01:43:00,70.7,47.7,30.16,ENE,66,0.0,0.0,44,0.00,,SKC,0.00,VWS V14.01,2013-01-09 06:43:00,
2013-01-09 01:48:00,70.7,48.3,30.16,ENE,66,0.0,0.0,45,0.00,,SKC,0.00,VWS V14.01,2013-01-09 06:48:00,
2013-01-09 01:53:00,70.5,48.2,30.16,ENE,66,0.0,0.0,45,0.00,,SKC,0.00,VWS V14.01,2013-01-09 06:53:00,
2013-01-09 01:58:00,70.5,48.2,30.16,ENE,66,0.0,0.0,45,0.00,,SKC,0.00,VWS V14.01,2013-01-09 06:58:00,
2013-01-09 02:03:00,70.3,48.6,30.16,ENE,66,0.0,0.0,46,0.00,,SKC,0.00,VWS V14.01,2013-01-09 07:03:00,
2013-01-09 02:08:00,70.2,48.4,30.16,ENE,66,0.0,0.0,46,0.00,,SKC,0.00,VWS V14.01,2013-01-09 07:08:00,
2013-01-09 02:13:00,70.2,48.4,30.14,ENE,66,0.0,0.0,46,0.00,,SKC,0.00,VWS V14.01,2013-01-09 07:13:00,
2013-01-09 02:18:00,70.0,48.8,30.14,ENE,66,0.0,0.0,47,0.00,,SKC,0.00,VWS V14.01,2013-01-09 07:18:00,
2013-01-09 02:23:00,69.8,48.7,30.14,ENE,66,0.0,0.0,47,0.00,,SKC,0.00,VWS V14.01,2013-01-09 07:23:00,
2013-01-09 02:28:00,69.8,49.2,30.16,ENE,67,0.0,0.0,48,0.00,,SKC,0.00,VWS V14.01,2013-01-09 07:28:00,
2013-01-09 02:33:00,69.6,49.1,30.16,ENE,66,0.0,0.0,48,0.00,,SKC,0.00,VWS V14.01,2013-01-09 07:33:00,
2013-01-09 02:38:00,69.6,49.1,30.16,ENE,66,0.0,0.0,48,0.00,,SKC,0.00,VWS V14.01,2013-01-09 07:38:00,
2013-01-09 02:43:00,69.6,49.6,30.16,ENE,66,0.0,0.0,49,0.00,,SKC,0.00,VWS V14.01,2013-01-09 07:43:00,
2013-01-09 02:48:00,69.4,49.5,30.16,ENE,66,0.0,0.0,49,0.00,,SKC,0.00,VWS V14.01,2013-01-09 07:48:00,
2013-01-09 02:53:00,69.3,49.8,30.16,ENE,66,0.0,0.0,50,0.00,,SKC,0.00,VWS V14.01,2013-01-09 07:53:00,
2013-01-09 02:58:00,69.3,49.8,30.16,ENE,66,0.0,0.0,50,0.00,,SKC,0.00,VWS V14.01,2013-01-09 07:58:00,
2013-01-09 03:03:00,69.1,50.7,30.16,ENE,66,0.0,0.0,52,0.00,,SKC,0.00,VWS V14.01,2013-01-09 08:03:00,
2013-01-09 03:08:00,69.1,50.7,30.16,ENE,66,0.0,0.0,52,0.00,,SKC,0.00,VWS V14.01,2013-01-09 08:08:00,
2013-01-09 03:13:00,68.9,51.1,30.16,ENE,67,0.0,0.0,53,0.00,,SKC,0.00,VWS V14.01,2013-01-09 08:13:00,
2013-01-09 03:18:00,68.9,51.6,30.16,ENE,66,0.0,0.0,54,0.00,,SKC,0.00,VWS V14.01,2013-01-09 08:18:00,
2013-01-09 03:23:00,68.7,51.9,30.16,ENE,66,0.0,0.0,55,0.00,,SKC,0.00,VWS V14.01,2013-01-09 08:23:00,
2013-01-09 03:28:00,68.7,52.4,30.16,ENE,66,0.0,0.0,56,0.00,,SKC,0.00,VWS V14.01,2013-01-09 08:28:00,
2013-01-09 03:33:00,68.7,52.9,30.16,ENE,66,0.0,0.0,57,0.00,,SKC,0.00,VWS V14.01,2013-01-09 08:33:00,
2013-01-09 03:38:00,68.7,53.4,30.16,ENE,66,0.0,0.0,58,0.00,,SKC,0.00,VWS V14.01,2013-01-09 08:38:00,
2013-01-09 03:43:00,68.7,53.8,30.16,ENE,66,0.0,0.0,59,0.00,,SKC,0.00,VWS V14.01,2013-01-09 08:43:00,
2013-01-09 03:48:00,68.5,54.1,30.16,ENE,67,0.0,0.0,60,0.00,,SKC,0.00,VWS V14.01,2013-01-09 08:48:00,
2013-01-09 03:53:00,68.5,55.0,30.16,ENE,67,0.0,0.0,62,0.00,,SKC,0.00,VWS V14.01,2013-01-09 08:53:00,
2013-01-09 03:58:00,68.5,55.5,30.16,ENE,66,0.0,0.0,63,0.00,,SKC,0.00,VWS V14.01,2013-01-09 08:58:00,
2013-01-09 04:03:00,68.5,55.9,30.16,ENE,66,0.0,0.0,64,0.00,,SKC,0.00,VWS V14.01,2013-01-09 09:03:00,
2013-01-09 04:08:00,68.5,56.7,30.16,ENE,66,0.0,0.0,66,0.00,,SKC,0.00,VWS V14.01,2013-01-09 09:08:00,
2013-01-09 04:13:00,68.5,57.2,30.14,ENE,66,0.0,0.0,67,0.00,,SKC,0.00,VWS V14.01,2013-01-09 09:13:00,
2013-01-09 04:18:00,68.5,57.6,30.14,ENE,67,0.0,0.0,68,0.00,,SKC,0.00,VWS V14.01,2013-01-09 09:18:00,
2013-01-09 04:23:00,68.5,58.0,30.14,ENE,67,0.0,0.0,69,0.00,,SKC,0.00,VWS V14.01,2013-01-09 09:23:00,
2013-01-09 04:28:00,68.5,58.4,30.16,ENE,66,0.0,0.0,70,0.00,,SKC,0.00,VWS V14.01,2013-01-09 09:28:00,
2013-01-09 04:33:00,68.5,58.4,30.16,ENE,66,0.0,0.0,70,0.00,,SKC,0.00,VWS V14.01,2013-01-09 09:33:00,
2013-01-09 04:38:00,68.5,58.8,30.16,ENE,67,0.0,0.0,71,0.00,,SKC,0.00,VWS V14.01,2013-01-09 09:38:00,
2013-01-09 04:43:00,68.5,59.2,30.16,ENE,66,0.0,0.0,72,0.00,,SKC,0.00,VWS V14.01,2013-01-09 09:43:00,
2013-01-09 04:48:00,68.5,59.5,30.16,ENE,66,0.0,0.0,73,0.00,,SKC,0.00,VWS V14.01,2013-01-09 09:48:00,
2013-01-09 04:53:00,68.5,59.9,30.16,ENE,67,0.0,0.0,74,0.00,,SKC,0.00,VWS V14.01,2013-01-09 09:53:00,
2013-01-09 04:58:00,68.5,59.9,30.14,ENE,67,0.0,0.0,74,0.00,,SKC,0.00,VWS V14.01,2013-01-09 09:58:00,
2013-01-09 05:03:00,68.5,59.9,30.14,ENE,66,0.0,0.0,74,0.00,,SKC,0.00,VWS V14.01,2013-01-09 10:03:00,
2013-01-09 05:08:00,68.5,59.9,30.14,ENE,66,0.0,0.0,74,0.00,,SKC,0.00,VWS V14.01,2013-01-09 10:08:00,
2013-01-09 05:13:00,68.5,60.3,30.16,ENE,66,0.0,0.0,75,0.00,,SKC,0.00,VWS V14.01,2013-01-09 10:13:00,
2013-01-09 05:18:00,68.5,60.3,30.16,ENE,67,0.0,0.0,75,0.00,,SKC,0.00,VWS V14.01,2013-01-09 10:18:00,
2013-01-09 05:23:00,68.7,60.5,30.16,ENE,67,0.0,0.0,75,0.00,,SKC,0.00,VWS V14.01,2013-01-09 10:23:00,
2013-01-09 05:28:00,68.7,60.5,30.16,ENE,66,0.0,0.0,75,0.00,,SKC,0.00,VWS V14.01,2013-01-09 10:28:00,
2013-01-09 05:33:00,68.7,60.9,30.16,ENE,66,0.0,0.0,76,0.00,,SKC,0.00,VWS V14.01,2013-01-09 10:33:00,
2013-01-09 05:38:00,68.7,60.9,30.16,ENE,66,0.0,0.0,76,0.00,,SKC,0.00,VWS V14.01,2013-01-09 10:38:00,
2013-01-09 05:43:00,68.9,61.0,30.16,ENE,66,0.0,0.0,76,0.00,,SKC,0.00,VWS V14.01,2013-01-09 10:43:00,
2013-01-09 05:48:00,68.9,61.4,30.16,ENE,66,0.0,0.0,77,0.00,,SKC,0.00,VWS V14.01,2013-01-09 10:48:00,
2013-01-09 05:53:00,69.1,61.6,30.16,ENE,66,0.0,0.0,77,0.00,,SKC,0.00,VWS V14.01,2013-01-09 10:53:00,
2013-01-09 05:58:00,69.1,61.6,30.16,ENE,66,0.0,0.0,77,0.00,,SKC,0.00,VWS V14.01,2013-01-09 10:58:00,
2013-01-09 06:03:00,69.1,61.6,30.16,ENE,66,0.0,0.0,77,0.00,,SKC,0.00,VWS V14.01,2013-01-09 11:03:00,
2013-01-09 06:08:00,69.3,62.1,30.16,ENE,66,0.0,0.0,78,0.00,,SKC,0.00,VWS V14.01,2013-01-09 11:08:00,
2013-01-09 06:13:00,69.3,62.1,30.16,ENE,67,0.0,0.0,78,0.00,,SKC,0.00,VWS V14.01,2013-01-09 11:13:00,
2013-01-09 06:18:00,69.3,62.1,30.16,ENE,66,0.0,0.0,78,0.00,,SKC,0.00,VWS V14.01,2013-01-09 11:18:00,
2013-01-09 06:23:00,69.4,62.3,30.16,ENE,66,0.0,0.0,78,0.00,,SKC,0.00,VWS V14.01,2013-01-09 11:23:00,
2013-01-09 06:28:00,69.4,62.3,30.16,ENE,66,0.0,0.0,78,0.00,,SKC,0.00,VWS V14.01,2013-01-09 11:28:00,
2013-01-09 06:33:00,69.4,62.3,30.16,ENE,66,0.0,0.0,78,0.00,,SKC,0.00,VWS V14.01,2013-01-09 11:33:00,
2013-01-09 06:38:00,69.4,62.3,30.16,ENE,66,0.0,0.0,78,0.00,,SKC,0.00,VWS V14.01,2013-01-09 11:38:00,
2013-01-09 06:42:00,69.4,62.3,30.16,ENE,66,0.0,0.0,78,0.00,,SKC,0.00,VWS V14.01,2013-01-09 11:42:00,
2013-01-09 06:47:00,69.4,62.3,30.16,ENE,66,0.0,0.0,78,0.00,,SKC,0.00,VWS V14.01,2013-01-09 11:47:00,
2013-01-09 06:52:00,69.4,62.3,30.16,ENE,67,0.0,0.0,78,0.00,,SKC,0.00,VWS V14.01,2013-01-09 11:52:00,
2013-01-09 06:57:00,69.3,62.1,30.16,ENE,66,0.0,0.0,78,0.00,,SKC,0.00,VWS V14.01,2013-01-09 11:57:00,
2013-01-09 07:03:00,69.3,62.1,30.16,ENE,67,0.0,0.0,78,0.00,,SKC,0.00,VWS V14.01,2013-01-09 12:03:00,
2013-01-09 07:08:00,69.1,61.9,30.16,ENE,66,0.0,0.0,78,0.00,,SKC,0.00,VWS V14.01,2013-01-09 12:08:00,
2013-01-09 07:13:00,69.1,61.9,30.19,ENE,67,0.0,0.0,78,0.00,,SKC,0.00,VWS V14.01,2013-01-09 12:13:00,
2013-01-09 07:18:00,69.1,61.9,30.19,ENE,67,0.0,0.0,78,0.00,,SKC,0.00,VWS V14.01,2013-01-09 12:18:00,
2013-01-09 07:23:00,68.9,61.8,30.19,ENE,66,0.0,0.0,78,0.00,,SKC,0.00,VWS V14.01,2013-01-09 12:23:00,
2013-01-09 07:28:00,68.9,61.8,30.19,ENE,66,0.0,0.0,78,0.00,,SKC,0.00,VWS V14.01,2013-01-09 12:28:00,
2013-01-09 07:33:00,68.9,61.8,30.19,ENE,66,0.0,0.0,78,0.00,,SKC,0.00,VWS V14.01,2013-01-09 12:33:00,
2013-01-09 07:38:00,68.9,61.8,30.19,ENE,66,0.0,0.0,78,0.00,,SKC,0.00,VWS V14.01,2013-01-09 12:38:00,
2013-01-09 07:43:00,68.9,61.8,30.19,ENE,66,0.0,0.0,78,0.00,,SKC,0.00,VWS V14.01,2013-01-09 12:43:00,
2013-01-09 07:48:00,69.1,62.3,30.19,ENE,67,0.0,0.0,79,0.00,,SKC,0.00,VWS V14.01,2013-01-09 12:48:00,
2013-01-09 07:53:00,69.1,62.3,30.19,ENE,66,0.0,0.0,79,0.00,,SKC,0.00,VWS V14.01,2013-01-09 12:53:00,
2013-01-09 07:58:00,69.1,62.3,30.19,ENE,66,0.0,0.0,79,0.00,,SKC,0.00,VWS V14.01,2013-01-09 12:58:00,
2013-01-09 08:03:00,69.3,62.5,30.19,ENE,66,0.0,0.0,79,0.00,,SKC,0.00,VWS V14.01,2013-01-09 13:03:00,
2013-01-09 08:08:00,69.3,62.5,30.19,ENE,66,0.0,0.0,79,0.00,,SKC,0.00,VWS V14.01,2013-01-09 13:08:00,
2013-01-09 08:13:00,69.4,62.7,30.19,ENE,66,0.0,0.0,79,0.00,,SKC,0.00,VWS V14.01,2013-01-09 13:13:00,
2013-01-09 08:18:00,69.6,63.2,30.19,ENE,67,0.0,0.0,80,0.00,,SKC,0.00,VWS V14.01,2013-01-09 13:18:00,
2013-01-09 08:23:00,69.8,63.4,30.19,ENE,66,0.0,0.0,80,0.00,,SKC,0.00,VWS V14.01,2013-01-09 13:23:00,
2013-01-09 08:28:00,70.0,63.5,30.22,ENE,67,0.0,0.0,80,0.00,,SKC,0.00,VWS V14.01,2013-01-09 13:28:00,
2013-01-09 08:33:00,70.2,63.7,30.22,ENE,67,0.0,0.0,80,0.00,,SKC,0.00,VWS V14.01,2013-01-09 13:33:00,
2013-01-09 08:38:00,70.3,63.9,30.22,ENE,66,0.0,0.0,80,0.00,,SKC,0.00,VWS V14.01,2013-01-09 13:38:00,
2013-01-09 08:43:00,70.3,63.9,30.22,ENE,67,0.0,0.0,80,0.00,,SKC,0.00,VWS V14.01,2013-01-09 13:43:00,
2013-01-09 08:48:00,70.5,64.1,30.22,ENE,66,0.0,0.0,80,0.00,,SKC,0.00,VWS V14.01,2013-01-09 13:48:00,
2013-01-09 08:53:00,70.7,64.2,30.22,ENE,66,0.0,0.0,80,0.00,,SKC,0.00,VWS V14.01,2013-01-09 13:53:00,
2013-01-09 08:58:00,70.9,64.4,30.22,ENE,67,0.0,0.0,80,0.00,,SKC,0.00,VWS V14.01,2013-01-09 13:58:00,
2013-01-09 09:03:00,71.1,64.6,30.22,ENE,66,0.0,0.0,80,0.00,,SKC,0.00,VWS V14.01,2013-01-09 14:03:00,
2013-01-09 09:08:00,71.2,64.8,30.22,ENE,66,0.0,0.0,80,0.00,,SKC,0.00,VWS V14.01,2013-01-09 14:08:00,
2013-01-09 09:13:00,71.6,64.8,30.22,ENE,66,0.0,0.0,79,0.00,,SKC,0.00,VWS V14.01,2013-01-09 14:13:00,
2013-01-09 09:18:00,72.0,64.7,30.22,ENE,66,0.0,0.0,78,0.00,,SKC,0.00,VWS V14.01,2013-01-09 14:18:00,
2013-01-09 09:23:00,72.1,64.5,30.22,ENE,66,0.0,0.0,77,0.00,,SKC,0.00,VWS V14.01,2013-01-09 14:23:00,
2013-01-09 09:28:00,72.5,64.1,30.22,ENE,67,0.0,0.0,75,0.00,,SKC,0.00,VWS V14.01,2013-01-09 14:28:00,
2013-01-09 09:33:00,72.9,63.7,30.22,ESE,119,0.0,0.0,73,0.00,,SKC,0.00,VWS V14.01,2013-01-09 14:33:00,
2013-01-09 09:38:00,73.2,62.9,30.22,East,82,0.0,0.0,70,0.00,,SKC,0.00,VWS V14.01,2013-01-09 14:38:00,
2013-01-09 09:43:00,73.6,61.1,30.25,SE,131,0.0,0.0,65,0.00,,SKC,0.00,VWS V14.01,2013-01-09 14:43:00,
2013-01-09 09:48:00,73.8,57.6,30.25,SSE,153,0.0,0.0,57,0.00,,SKC,0.00,VWS V14.01,2013-01-09 14:48:00,
2013-01-09 09:53:00,73.9,54.2,30.25,SE,132,0.0,0.0,50,0.00,,SKC,0.00,VWS V14.01,2013-01-09 14:53:00,
2013-01-09 09:58:00,74.1,51.4,30.25,ENE,59,0.0,0.0,45,0.00,,SKC,0.00,VWS V14.01,2013-01-09 14:58:00,
2013-01-09 10:03:00,74.7,51.9,30.25,South,181,0.0,0.0,45,0.00,,SKC,0.00,VWS V14.01,2013-01-09 15:03:00,
2013-01-09 10:08:00,74.8,50.9,30.25,SE,138,0.0,0.0,43,0.00,,SKC,0.00,VWS V14.01,2013-01-09 15:08:00,
2013-01-09 10:13:00,75.4,50.1,30.25,SSE,156,0.0,0.0,41,0.00,,SKC,0.00,VWS V14.01,2013-01-09 15:13:00,
2013-01-09 10:18:00,75.6,49.6,30.25,SSE,150,0.0,0.0,40,0.00,,SKC,0.00,VWS V14.01,2013-01-09 15:18:00,
2013-01-09 10:23:00,75.9,47.8,30.25,SSE,150,0.0,0.0,37,0.00,,SKC,0.00,VWS V14.01,2013-01-09 15:23:00,
2013-01-09 10:28:00,76.1,45.7,30.25,SSE,148,0.0,0.0,34,0.00,,SKC,0.00,VWS V14.01,2013-01-09 15:28:00,
2013-01-09 10:33:00,76.3,45.1,30.25,SSE,153,0.0,0.0,33,0.00,,SKC,0.00,VWS V14.01,2013-01-09 15:33:00,
2013-01-09 10:37:00,76.3,44.3,30.25,SE,142,0.0,0.0,32,0.00,,SKC,0.00,VWS V14.01,2013-01-09 15:37:00,
2013-01-09 10:42:00,76.1,44.1,30.25,ENE,76,0.0,0.0,32,0.00,,SKC,0.00,VWS V14.01,2013-01-09 15:42:00,
2013-01-09 10:47:00,76.6,43.8,30.25,ESE,104,0.0,0.0,31,0.00,,SKC,0.00,VWS V14.01,2013-01-09 15:47:00,
2013-01-09 10:52:00,76.8,43.9,30.25,SE,135,0.0,0.0,31,0.00,,SKC,0.00,VWS V14.01,2013-01-09 15:52:00,
2013-01-09 10:57:00,77.2,43.4,30.22,SE,130,0.0,0.0,30,0.00,,SKC,0.00,VWS V14.01,2013-01-09 15:57:00,
2013-01-09 11:02:00,77.5,41.0,30.22,SSE,155,0.0,0.0,27,0.00,,SKC,0.00,VWS V14.01,2013-01-09 16:02:00,
2013-01-09 11:07:00,77.7,40.1,30.22,ESE,123,0.0,0.0,26,0.00,,SKC,0.00,VWS V14.01,2013-01-09 16:07:00,
2013-01-09 11:12:00,78.1,39.4,30.25,SSE,168,0.0,0.0,25,0.00,,SKC,0.00,VWS V14.01,2013-01-09 16:12:00,
2013-01-09 11:17:00,78.8,37.9,30.25,ESE,111,0.0,0.0,23,0.00,,SKC,0.00,VWS V14.01,2013-01-09 16:17:00,
2013-01-09 11:22:00,79.2,37.1,30.25,SW,216,0.0,0.0,22,0.00,,SKC,0.00,VWS V14.01,2013-01-09 16:22:00,
2013-01-09 11:27:00,79.0,35.8,30.25,SSE,152,0.0,0.0,21,0.00,,SKC,0.00,VWS V14.01,2013-01-09 16:27:00,
2013-01-09 11:32:00,79.2,37.1,30.25,SSE,167,0.0,0.0,22,0.00,,SKC,0.00,VWS V14.01,2013-01-09 16:32:00,
2013-01-09 11:37:00,79.9,36.5,30.25,SSE,152,0.0,0.0,21,0.00,,SKC,0.00,VWS V14.01,2013-01-09 16:37:00,
2013-01-09 11:42:00,80.4,35.7,30.22,ESE,115,0.0,0.0,20,0.00,,SKC,0.00,VWS V14.01,2013-01-09 16:42:00,
2013-01-09 11:47:00,81.0,36.2,30.22,SE,145,0.0,0.0,20,0.00,,SKC,0.00,VWS V14.01,2013-01-09 16:47:00,
2013-01-09 11:52:00,81.5,36.6,30.22,SE,145,0.0,0.0,20,0.00,,SKC,0.00,VWS V14.01,2013-01-09 16:52:00,
2013-01-09 11:57:00,81.9,35.6,30.22,SSE,152,0.0,0.0,19,0.00,,SKC,0.00,VWS V14.01,2013-01-09 16:57:00,
2013-01-09 12:02:00,82.2,33.1,30.22,SSE,147,0.0,0.0,17,0.00,,SKC,0.00,VWS V14.01,2013-01-09 17:02:00,
2013-01-09 12:07:00,82.8,32.0,30.22,SE,144,0.0,0.0,16,0.00,,SKC,0.00,VWS V14.01,2013-01-09 17:07:00,
2013-01-09 12:12:00,82.9,28.9,30.22,NNE,24,0.0,0.0,14,0.00,,SKC,0.00,VWS V14.01,2013-01-09 17:12:00,
2013-01-09 12:17:00,83.3,29.2,30.22,ENE,73,0.0,0.0,14,0.00,,SKC,0.00,VWS V14.01,2013-01-09 17:17:00,
2013-01-09 12:22:00,83.5,29.3,30.22,ENE,74,0.0,0.0,14,0.00,,SKC,0.00,VWS V14.01,2013-01-09 17:22:00,
2013-01-09 12:27:00,83.5,29.3,30.22,ENE,74,0.0,0.0,14,0.00,,SKC,0.00,VWS V14.01,2013-01-09 17:27:00,
2013-01-09 12:32:00,84.0,23.9,30.22,ESE,118,0.0,0.0,11,0.00,,SKC,0.00,VWS V14.01,2013-01-09 17:32:00,
2013-01-09 12:37:00,84.6,24.3,30.22,SSE,154,0.0,0.0,11,0.00,,SKC,0.00,VWS V14.01,2013-01-09 17:37:00,
2013-01-09 12:42:00,84.4,24.2,30.22,NNE,20,0.0,0.0,11,0.00,,SKC,0.00,VWS V14.01,2013-01-09 17:42:00,
2013-01-09 12:47:00,84.4,24.2,30.22,East,90,0.0,0.0,11,0.00,,SKC,0.00,VWS V14.01,2013-01-09 17:47:00,
2013-01-09 12:52:00,84.7,24.5,30.22,NNE,26,0.0,0.0,11,0.00,,SKC,0.00,VWS V14.01,2013-01-09 17:52:00,
2013-01-09 12:57:00,85.1,24.7,30.19,SE,141,0.0,0.0,11,0.00,,SKC,0.00,VWS V14.01,2013-01-09 17:57:00,
2013-01-09 13:02:00,85.6,25.2,30.19,South,189,0.0,0.0,11,0.00,,SKC,0.00,VWS V14.01,2013-01-09 18:02:00,
2013-01-09 13:07:00,86.2,18.0,30.19,South,189,0.0,0.0,8,0.00,,SKC,0.00,VWS V14.01,2013-01-09 18:07:00,
2013-01-09 13:12:00,86.4,18.2,30.19,SE,132,0.0,0.0,8,0.00,,SKC,0.00,VWS V14.01,2013-01-09 18:12:00,
2013-01-09 13:17:00,86.2,18.0,30.19,SSE,153,0.0,0.0,8,0.00,,SKC,0.00,VWS V14.01,2013-01-09 18:17:00,
2013-01-09 13:22:00,86.5,18.3,30.19,SE,143,0.0,0.0,8,0.00,,SKC,0.00,VWS V14.01,2013-01-09 18:22:00,
2013-01-09 13:27:00,86.5,18.3,30.19,West,265,0.0,0.0,8,0.00,,SKC,0.00,VWS V14.01,2013-01-09 18:27:00,
2013-01-09 13:32:00,86.7,18.5,30.19,SSE,152,0.0,0.0,8,0.00,,SKC,0.00,VWS V14.01,2013-01-09 18:32:00,
2013-01-09 13:37:00,86.7,18.5,30.19,SE,143,0.0,0.0,8,0.00,,SKC,0.00,VWS V14.01,2013-01-09 18:37:00,
2013-01-09 13:41:00,86.9,18.6,30.19,East,84,0.0,0.0,8,0.00,,SKC,0.00,VWS V14.01,2013-01-09 18:41:00,
2013-01-09 13:44:00,86.9,18.6,30.19,SE,145,0.0,0.0,8,0.00,,SKC,0.00,VWS V14.01,2013-01-09 18:44:00,
2013-01-09 13:48:00,86.9,18.6,30.19,South,185,0.0,0.0,8,0.00,,SKC,0.00,VWS V14.01,2013-01-09 18:48:00,
2013-01-09 13:49:00,87.1,18.7,30.19,SSE,164,0.0,0.0,8,0.00,,SKC,0.00,VWS V14.01,2013-01-09 18:49:00,
2013-01-09 13:54:00,87.1,18.7,30.19,South,185,0.0,0.0,8,0.00,,SKC,0.00,VWS V14.01,2013-01-09 18:54:00,
2013-01-09 13:59:00,87.3,18.9,30.19,South,179,0.0,0.0,8,0.00,,SKC,0.00,VWS V14.01,2013-01-09 18:59:00,
2013-01-09 14:04:00,87.4,19.0,30.19,SE,135,0.0,0.0,8,0.00,,SKC,0.00,VWS V14.01,2013-01-09 19:04:00,
2013-01-09 14:09:00,87.4,19.0,30.19,SSW,195,0.0,0.0,8,0.00,,SKC,0.00,VWS V14.01,2013-01-09 19:09:00,
2013-01-09 14:14:00,87.3,18.9,30.19,SSE,153,0.0,0.0,8,0.00,,SKC,0.00,VWS V14.01,2013-01-09 19:14:00,
2013-01-09 14:19:00,87.1,18.7,30.19,SE,146,0.0,0.0,8,0.00,,SKC,0.00,VWS V14.01,2013-01-09 19:19:00,
2013-01-09 14:23:00,87.1,18.7,30.19,SW,236,0.0,0.0,8,0.00,,SKC,0.00,VWS V14.01,2013-01-09 19:23:00,
2013-01-09 14:29:00,87.1,18.7,30.19,East,100,0.0,0.0,8,0.00,,SKC,0.00,VWS V14.01,2013-01-09 19:29:00,
2013-01-09 14:33:00,87.1,18.7,30.19,ESE,121,0.0,0.0,8,0.00,,SKC,0.00,VWS V14.01,2013-01-09 19:33:00,
2013-01-09 14:38:00,87.4,19.0,30.19,ESE,103,0.0,0.0,8,0.00,,SKC,0.00,VWS V14.01,2013-01-09 19:38:00,
2013-01-09 14:43:00,87.1,18.7,30.19,SE,143,0.0,0.0,8,0.00,,SKC,0.00,VWS V14.01,2013-01-09 19:43:00,
2013-01-09 14:48:00,87.1,18.7,30.19,SSE,155,0.0,0.0,8,0.00,,SKC,0.00,VWS V14.01,2013-01-09 19:48:00,
2013-01-09 14:53:00,87.1,18.7,30.19,SSE,160,0.0,0.0,8,0.00,,SKC,0.00,VWS V14.01,2013-01-09 19:53:00,
2013-01-09 14:58:00,86.9,18.6,30.19,NNE,16,0.0,0.0,8,0.00,,SKC,0.00,VWS V14.01,2013-01-09 19:58:00,
2013-01-09 15:03:00,87.1,18.7,30.19,SSE,165,0.0,0.0,8,0.00,,SKC,0.00,VWS V14.01,2013-01-09 20:03:00,
2013-01-09 15:08:00,86.7,18.5,30.19,SE,141,0.0,0.0,8,0.00,,SKC,0.00,VWS V14.01,2013-01-09 20:08:00,
2013-01-09 15:13:00,86.5,18.3,30.16,East,80,0.0,0.0,8,0.00,,SKC,0.00,VWS V14.01,2013-01-09 20:13:00,
2013-01-09 15:18:00,86.2,18.0,30.16,East,99,0.0,0.0,8,0.00,,SKC,0.00,VWS V14.01,2013-01-09 20:18:00,
2013-01-09 15:23:00,86.2,18.0,30.16,East,99,0.0,0.0,8,0.00,,SKC,0.00,VWS V14.01,2013-01-09 20:23:00,
2013-01-09 15:28:00,86.4,18.2,30.16,East,99,0.0,0.0,8,0.00,,SKC,0.00,VWS V14.01,2013-01-09 20:28:00,
2013-01-09 15:33:00,86.4,18.2,30.16,East,99,0.0,0.0,8,0.00,,SKC,0.00,VWS V14.01,2013-01-09 20:33:00,
2013-01-09 15:38:00,86.2,18.0,30.16,North,2,0.0,0.0,8,0.00,,SKC,0.00,VWS V14.01,2013-01-09 20:38:00,
2013-01-09 15:43:00,85.8,17.8,30.16,SE,124,0.0,0.0,8,0.00,,SKC,0.00,VWS V14.01,2013-01-09 20:43:00,
2013-01-09 15:48:00,85.5,17.5,30.16,SE,125,0.0,0.0,8,0.00,,SKC,0.00,VWS V14.01,2013-01-09 20:48:00,
2013-01-09 15:53:00,85.5,17.5,30.16,SE,125,0.0,0.0,8,0.00,,SKC,0.00,VWS V14.01,2013-01-09 20:53:00,
2013-01-09 15:58:00,85.1,17.2,30.16,SE,125,0.0,0.0,8,0.00,,SKC,0.00,VWS V14.01,2013-01-09 20:58:00,
2013-01-09 16:03:00,85.1,17.2,30.16,SE,125,0.0,0.0,8,0.00,,SKC,0.00,VWS V14.01,2013-01-09 21:03:00,
2013-01-09 16:08:00,85.1,17.2,30.16,ESE,109,0.0,0.0,8,0.00,,SKC,0.00,VWS V14.01,2013-01-09 21:08:00,
2013-01-09 16:13:00,84.9,17.1,30.19,ESE,108,0.0,0.0,8,0.00,,SKC,0.00,VWS V14.01,2013-01-09 21:13:00,
2013-01-09 16:18:00,84.7,17.0,30.19,ESE,108,0.0,0.0,8,0.00,,SKC,0.00,VWS V14.01,2013-01-09 21:18:00,
2013-01-09 16:23:00,84.4,16.7,30.19,ENE,76,0.0,0.0,8,0.00,,SKC,0.00,VWS V14.01,2013-01-09 21:23:00,
2013-01-09 16:28:00,84.0,19.2,30.16,ENE,76,0.0,0.0,9,0.00,,SKC,0.00,VWS V14.01,2013-01-09 21:28:00,
2013-01-09 16:33:00,83.3,18.6,30.16,ENE,77,0.0,0.0,9,0.00,,SKC,0.00,VWS V14.01,2013-01-09 21:33:00,
2013-01-09 16:38:00,82.6,18.1,30.16,ENE,76,0.0,0.0,9,0.00,,SKC,0.00,VWS V14.01,2013-01-09 21:38:00,
2013-01-09 16:43:00,82.2,17.8,30.19,ENE,77,0.0,0.0,9,0.00,,SKC,0.00,VWS V14.01,2013-01-09 21:43:00,
2013-01-09 16:48:00,82.0,17.7,30.19,ENE,76,0.0,0.0,9,0.00,,SKC,0.00,VWS V14.01,2013-01-09 21:48:00,
2013-01-09 16:53:00,81.9,17.6,30.19,East,81,0.0,0.0,9,0.00,,SKC,0.00,VWS V14.01,2013-01-09 21:53:00,
2013-01-09 16:58:00,81.9,17.6,30.16,East,81,0.0,0.0,9,0.00,,SKC,0.00,VWS V14.01,2013-01-09 21:58:00,
2013-01-09 17:03:00,82.2,17.8,30.16,East,81,0.0,0.0,9,0.00,,SKC,0.00,VWS V14.01,2013-01-09 22:03:00,
2013-01-09 17:08:00,81.5,17.3,30.16,East,81,0.0,0.0,9,0.00,,SKC,0.00,VWS V14.01,2013-01-09 22:08:00,
2013-01-09 17:13:00,81.0,16.9,30.19,North,353,0.0,0.0,9,0.00,,SKC,0.00,VWS V14.01,2013-01-09 22:13:00,
2013-01-09 17:18:00,80.2,18.8,30.19,North,353,0.0,0.0,10,0.00,,SKC,0.00,VWS V14.01,2013-01-09 22:18:00,
2013-01-09 17:23:00,79.9,18.5,30.19,North,353,0.0,0.0,10,0.00,,SKC,0.00,VWS V14.01,2013-01-09 22:23:00,
2013-01-09 17:28:00,79.5,18.2,30.19,North,353,0.0,0.0,10,0.00,,SKC,0.00,VWS V14.01,2013-01-09 22:28:00,
2013-01-09 17:33:00,79.3,18.1,30.19,North,353,0.0,0.0,10,0.00,,SKC,0.00,VWS V14.01,2013-01-09 22:33:00,
2013-01-09 17:38:00,79.0,17.8,30.19,North,353,0.0,0.0,10,0.00,,SKC,0.00,VWS V14.01,2013-01-09 22:38:00,
2013-01-09 17:43:00,78.6,17.5,30.19,North,353,0.0,0.0,10,0.00,,SKC,0.00,VWS V14.01,2013-01-09 22:43:00,
2013-01-09 17:48:00,78.4,17.4,30.19,North,353,0.0,0.0,10,0.00,,SKC,0.00,VWS V14.01,2013-01-09 22:48:00,
2013-01-09 17:53:00,78.1,17.1,30.19,North,353,0.0,0.0,10,0.00,,SKC,0.00,VWS V14.01,2013-01-09 22:53:00,
2013-01-09 17:58:00,77.7,16.9,30.19,North,353,0.0,0.0,10,0.00,,SKC,0.00,VWS V14.01,2013-01-09 22:58:00,
2013-01-09 18:03:00,77.5,16.7,30.19,North,353,0.0,0.0,10,0.00,,SKC,0.00,VWS V14.01,2013-01-09 23:03:00,
2013-01-09 18:08:00,77.2,16.5,30.19,North,353,0.0,0.0,10,0.00,,SKC,0.00,VWS V14.01,2013-01-09 23:08:00,
2013-01-09 18:13:00,77.0,16.3,30.19,North,353,0.0,0.0,10,0.00,,SKC,0.00,VWS V14.01,2013-01-09 23:13:00,
2013-01-09 18:18:00,76.6,22.1,30.19,North,353,0.0,0.0,13,0.00,,SKC,0.00,VWS V14.01,2013-01-09 23:18:00,
2013-01-09 18:23:00,76.5,22.0,30.19,North,353,0.0,0.0,13,0.00,,SKC,0.00,VWS V14.01,2013-01-09 23:23:00,
2013-01-09 18:28:00,76.3,21.9,30.19,North,353,0.0,0.0,13,0.00,,SKC,0.00,VWS V14.01,2013-01-09 23:28:00,
2013-01-09 18:33:00,76.1,21.7,30.19,North,353,0.0,0.0,13,0.00,,SKC,0.00,VWS V14.01,2013-01-09 23:33:00,
2013-01-09 18:38:00,75.9,21.6,30.19,North,353,0.0,0.0,13,0.00,,SKC,0.00,VWS V14.01,2013-01-09 23:38:00,
2013-01-09 18:43:00,75.7,21.5,30.19,North,353,0.0,0.0,13,0.00,,SKC,0.00,VWS V14.01,2013-01-09 23:43:00,
2013-01-09 18:48:00,75.6,21.3,30.19,North,353,0.0,0.0,13,0.00,,SKC,0.00,VWS V14.01,2013-01-09 23:48:00,
2013-01-09 18:53:00,75.6,21.3,30.19,North,353,0.0,0.0,13,0.00,,SKC,0.00,VWS V14.01,2013-01-09 23:53:00,
2013-01-09 18:58:00,75.4,21.2,30.19,North,353,0.0,0.0,13,0.00,,SKC,0.00,VWS V14.01,2013-01-09 23:58:00,
2013-01-09 19:03:00,75.2,21.0,30.19,North,353,0.0,0.0,13,0.00,,SKC,0.00,VWS V14.01,2013-01-10 00:03:00,
2013-01-09 19:08:00,75.0,20.9,30.19,North,353,0.0,0.0,13,0.00,,SKC,0.00,VWS V14.01,2013-01-10 00:08:00,
2013-01-09 19:13:00,74.8,25.7,30.19,North,353,0.0,0.0,16,0.00,,SKC,0.00,VWS V14.01,2013-01-10 00:13:00,
2013-01-09 19:18:00,74.8,25.7,30.19,North,353,0.0,0.0,16,0.00,,SKC,0.00,VWS V14.01,2013-01-10 00:18:00,
2013-01-09 19:23:00,74.7,25.5,30.19,North,353,0.0,0.0,16,0.00,,SKC,0.00,VWS V14.01,2013-01-10 00:23:00,
2013-01-09 19:28:00,74.7,25.5,30.19,North,353,0.0,0.0,16,0.00,,SKC,0.00,VWS V14.01,2013-01-10 00:28:00,
2013-01-09 19:33:00,74.5,25.4,30.19,North,353,0.0,0.0,16,0.00,,SKC,0.00,VWS V14.01,2013-01-10 00:33:00,
2013-01-09 19:38:00,74.3,25.2,30.19,North,353,0.0,0.0,16,0.00,,SKC,0.00,VWS V14.01,2013-01-10 00:38:00,
2013-01-09 19:43:00,74.1,25.1,30.22,North,353,0.0,0.0,16,0.00,,SKC,0.00,VWS V14.01,2013-01-10 00:43:00,
2013-01-09 19:48:00,74.1,25.1,30.22,North,353,0.0,0.0,16,0.00,,SKC,0.00,VWS V14.01,2013-01-10 00:48:00,
2013-01-09 19:53:00,74.1,25.1,30.22,North,353,0.0,0.0,16,0.00,,SKC,0.00,VWS V14.01,2013-01-10 00:53:00,
2013-01-09 19:58:00,73.9,25.0,30.22,North,353,0.0,0.0,16,0.00,,SKC,0.00,VWS V14.01,2013-01-10 00:58:00,
2013-01-09 20:03:00,73.9,27.8,30.22,North,353,0.0,0.0,18,0.00,,SKC,0.00,VWS V14.01,2013-01-10 01:03:00,
2013-01-09 20:08:00,73.8,27.6,30.22,North,353,0.0,0.0,18,0.00,,SKC,0.00,VWS V14.01,2013-01-10 01:08:00,
2013-01-09 20:13:00,73.8,27.6,30.22,North,353,0.0,0.0,18,0.00,,SKC,0.00,VWS V14.01,2013-01-10 01:13:00,
2013-01-09 20:18:00,73.8,27.6,30.22,North,353,0.0,0.0,18,0.00,,SKC,0.00,VWS V14.01,2013-01-10 01:18:00,
2013-01-09 20:23:00,73.8,27.6,30.22,North,353,0.0,0.0,18,0.00,,SKC,0.00,VWS V14.01,2013-01-10 01:23:00,
2013-01-09 20:28:00,73.8,31.4,30.22,SE,145,0.0,0.0,21,0.00,,SKC,0.00,VWS V14.01,2013-01-10 01:28:00,
2013-01-09 20:33:00,73.6,31.3,30.22,SE,146,0.0,0.0,21,0.00,,SKC,0.00,VWS V14.01,2013-01-10 01:33:00,
2013-01-09 20:38:00,73.6,31.3,30.22,SSE,165,0.0,0.0,21,0.00,,SKC,0.00,VWS V14.01,2013-01-10 01:38:00,
2013-01-09 20:43:00,73.6,31.3,30.22,South,181,0.0,0.0,21,0.00,,SKC,0.00,VWS V14.01,2013-01-10 01:43:00,
2013-01-09 20:48:00,73.6,32.4,30.22,SSE,159,0.0,0.0,22,0.00,,SKC,0.00,VWS V14.01,2013-01-10 01:48:00,
2013-01-09 20:53:00,73.6,32.4,30.22,SE,128,0.0,0.0,22,0.00,,SKC,0.00,VWS V14.01,2013-01-10 01:53:00,
2013-01-09 20:58:00,73.4,33.4,30.22,SSE,147,0.0,0.0,23,0.00,,SKC,0.00,VWS V14.01,2013-01-10 01:58:00,
2013-01-09 21:03:00,73.4,34.5,30.22,SE,140,0.0,0.0,24,0.00,,SKC,0.00,VWS V14.01,2013-01-10 02:03:00,
2013-01-09 21:08:00,73.2,35.3,30.22,SE,141,0.0,0.0,25,0.00,,SKC,0.00,VWS V14.01,2013-01-10 02:08:00,
2013-01-09 21:13:00,73.2,36.3,30.22,SSE,151,0.0,0.0,26,0.00,,SKC,0.00,VWS V14.01,2013-01-10 02:13:00,
2013-01-09 21:18:00,73.2,38.2,30.22,SSE,148,0.0,0.0,28,0.00,,SKC,0.00,VWS V14.01,2013-01-10 02:18:00,
2013-01-09 21:23:00,73.0,38.9,30.22,SE,146,0.0,0.0,29,0.00,,SKC,0.00,VWS V14.01,2013-01-10 02:23:00,
2013-01-09 21:28:00,73.0,40.6,30.22,SE,143,0.0,0.0,31,0.00,,SKC,0.00,VWS V14.01,2013-01-10 02:28:00,
2013-01-09 21:33:00,73.0,40.6,30.22,SSE,159,0.0,0.0,31,0.00,,SKC,0.00,VWS V14.01,2013-01-10 02:33:00,
2013-01-09 21:38:00,73.0,41.5,30.22,SE,139,0.0,0.0,32,0.00,,SKC,0.00,VWS V14.01,2013-01-10 02:38:00,
2013-01-09 21:43:00,73.0,42.3,30.25,SE,125,0.0,0.0,33,0.00,,SKC,0.00,VWS V14.01,2013-01-10 02:43:00,
2013-01-09 21:48:00,72.9,42.1,30.25,SSE,153,0.0,0.0,33,0.00,,SKC,0.00,VWS V14.01,2013-01-10 02:48:00,
2013-01-09 21:53:00,72.9,42.1,30.25,SSE,153,0.0,0.0,33,0.00,,SKC,0.00,VWS V14.01,2013-01-10 02:53:00,
2013-01-09 21:58:00,72.9,42.9,30.25,SSE,153,0.0,0.0,34,0.00,,SKC,0.00,VWS V14.01,2013-01-10 02:58:00,
2013-01-09 22:03:00,72.7,42.7,30.25,SSE,153,0.0,0.0,34,0.00,,SKC,0.00,VWS V14.01,2013-01-10 03:03:00,
2013-01-09 22:08:00,72.7,43.5,30.25,SSE,153,0.0,0.0,35,0.00,,SKC,0.00,VWS V14.01,2013-01-10 03:08:00,
2013-01-09 22:13:00,72.5,43.3,30.25,SSE,153,0.0,0.0,35,0.00,,SKC,0.00,VWS V14.01,2013-01-10 03:13:00,
2013-01-09 22:18:00,72.5,44.1,30.25,SSE,153,0.0,0.0,36,0.00,,SKC,0.00,VWS V14.01,2013-01-10 03:18:00,
2013-01-09 22:23:00,72.3,43.9,30.25,SSE,153,0.0,0.0,36,0.00,,SKC,0.00,VWS V14.01,2013-01-10 03:23:00,
2013-01-09 22:28:00,72.3,44.6,30.25,SSE,153,0.0,0.0,37,0.00,,SKC,0.00,VWS V14.01,2013-01-10 03:28:00,
2013-01-09 22:33:00,72.1,44.5,30.25,SSE,153,0.0,0.0,37,0.00,,SKC,0.00,VWS V14.01,2013-01-10 03:33:00,
2013-01-09 22:38:00,72.0,44.3,30.25,SSE,153,0.0,0.0,37,0.00,,SKC,0.00,VWS V14.01,2013-01-10 03:38:00,
2013-01-09 22:43:00,72.0,45.0,30.25,SSE,153,0.0,0.0,38,0.00,,SKC,0.00,VWS V14.01,2013-01-10 03:43:00,
2013-01-09 22:48:00,71.8,45.5,30.25,SSE,153,0.0,0.0,39,0.00,,SKC,0.00,VWS V14.01,2013-01-10 03:48:00,
2013-01-09 22:53:00,71.6,45.4,30.25,SSE,153,0.0,0.0,39,0.00,,SKC,0.00,VWS V14.01,2013-01-10 03:53:00,
2013-01-09 22:58:00,71.6,46.0,30.25,SSE,153,0.0,0.0,40,0.00,,SKC,0.00,VWS V14.01,2013-01-10 03:58:00,
2013-01-09 23:03:00,71.6,46.7,30.25,SSE,153,0.0,0.0,41,0.00,,SKC,0.00,VWS V14.01,2013-01-10 04:03:00,
2013-01-09 23:08:00,71.4,47.2,30.25,SSE,153,0.0,0.0,42,0.00,,SKC,0.00,VWS V14.01,2013-01-10 04:08:00,
2013-01-09 23:13:00,71.4,47.2,30.25,SSE,153,0.0,0.0,42,0.00,,SKC,0.00,VWS V14.01,2013-01-10 04:13:00,
2013-01-09 23:18:00,71.4,47.8,30.25,SSE,153,0.0,0.0,43,0.00,,SKC,0.00,VWS V14.01,2013-01-10 04:18:00,
2013-01-09 23:23:00,71.2,47.6,30.25,SSE,153,0.0,0.0,43,0.00,,SKC,0.00,VWS V14.01,2013-01-10 04:23:00,
2013-01-09 23:28:00,71.2,48.2,30.25,SSE,153,0.0,0.0,44,0.00,,SKC,0.00,VWS V14.01,2013-01-10 04:28:00,
2013-01-09 23:33:00,71.2,48.2,30.25,SSE,153,0.0,0.0,44,0.00,,SKC,0.00,VWS V14.01,2013-01-10 04:33:00,
2013-01-09 23:38:00,71.1,48.1,30.25,SSE,153,0.0,0.0,44,0.00,,SKC,0.00,VWS V14.01,2013-01-10 04:38:00,
2013-01-09 23:43:00,71.1,48.1,30.25,SSE,153,0.0,0.0,44,0.00,,SKC,0.00,VWS V14.01,2013-01-10 04:43:00,
2013-01-09 23:48:00,71.1,48.1,30.25,SSE,153,0.0,0.0,44,0.00,,SKC,0.00,VWS V14.01,2013-01-10 04:48:00,
2013-01-09 23:53:00,70.9,48.5,30.25,SSE,153,0.0,0.0,45,0.00,,SKC,0.00,VWS V14.01,2013-01-10 04:53:00,
2013-01-09 23:58:00,70.9,48.5,30.25,SSE,153,0.0,0.0,45,0.00,,SKC,0.00,VWS V14.01,2013-01-10 04:58:00,